| time (UTC) | temp F | wind direction | speed MPH | gust MPH | rain 1hr in | rain 24hr in | rain mn in | humidity % | barometer mb |
| 20260504081506 | 43 | 147 | 0.0 | 0.0 | 0.00 | 0.00 | 0.00 | 46 | 998.0 |
| 20260504050141 | 44 | 202 | 0.0 | 0.0 | 0.00 | 0.00 | 0.00 | 46 | 1001.1 |
| 20260504044541 | 44 | 202 | 0.0 | 0.0 | 0.00 | 0.00 | 0.00 | 45 | 1001.2 |
| 20260504043044 | 45 | 202 | 0.0 | 0.0 | 0.00 | 0.00 | 0.00 | 45 | 1001.1 |
| 20260504041541 | 46 | 202 | 0.0 | 0.0 | 0.00 | 0.00 | 0.00 | 43 | 1001.1 |
| 20260504040142 | 47 | 202 | 0.0 | 0.0 | 0.00 | 0.00 | 0.00 | 40 | 1001.3 |
| 20260504034639 | 47 | 202 | 0.0 | 0.0 | 0.00 | 0.00 | 0.00 | 41 | 1001.5 |
| 20260504033038 | 48 | 202 | 0.0 | 0.0 | 0.00 | 0.00 | 0.00 | 37 | 1001.6 |
| 20260504031551 | 49 | 202 | 0.0 | 0.0 | 0.00 | 0.00 | 0.00 | 34 | 1001.7 |
| 20260504024539 | 52 | 202 | 0.0 | 0.0 | 0.00 | 0.00 | 0.00 | 28 | 1001.9 |
| 20260504023039 | 53 | 202 | 0.0 | 0.0 | 0.00 | 0.00 | 0.00 | 28 | 1001.8 |
| 20260504021538 | 54 | 202 | 0.0 | 0.0 | 0.00 | 0.00 | 0.00 | 28 | 1001.8 |
| 20260504020138 | 56 | 202 | 0.0 | 0.0 | 0.00 | 0.00 | 0.00 | 27 | 1001.8 |
| 20260504014541 | 57 | 202 | 0.0 | 0.0 | 0.00 | 0.00 | 0.00 | 26 | 1001.7 |
| 20260504013041 | 59 | 202 | 0.0 | 2.0 | 0.00 | 0.00 | 0.00 | 25 | 1001.5 |
| 20260504011540 | 60 | 141 | 0.0 | 3.0 | 0.00 | 0.00 | 0.00 | 20 | 1001.5 |
| 20260504004535 | 61 | 138 | 2.0 | 5.0 | 0.00 | 0.00 | 0.00 | 17 | 1001.2 |
| 20260504003034 | 62 | 138 | 1.0 | 3.0 | 0.00 | 0.00 | 0.00 | 17 | 1000.9 |
| 20260504001538 | 63 | 167 | 1.0 | 4.0 | 0.00 | 0.00 | 0.00 | 16 | 1000.7 |
| 20260504000133 | 64 | 136 | 1.0 | 5.0 | 0.00 | 0.00 | 0.00 | 17 | 1000.4 |
| 20260503234558 | 65 | 134 | 1.0 | 4.0 | 0.00 | 0.00 | 0.00 | 16 | 1000.2 |
| 20260503233043 | 65 | 129 | 1.0 | 5.0 | 0.00 | 0.00 | 0.00 | 16 | 1000.1 |
| 20260503231535 | 65 | 188 | 2.0 | 8.0 | 0.00 | 0.00 | 0.00 | 14 | 1000.0 |
| 20260503230133 | 66 | 129 | 1.0 | 7.0 | 0.00 | 0.00 | 0.00 | 16 | 1000.0 |
| 20260503224532 | 66 | 142 | 2.0 | 8.0 | 0.00 | 0.00 | 0.00 | 15 | 999.9 |
| 20260503223031 | 66 | 186 | 2.0 | 6.0 | 0.00 | 0.00 | 0.00 | 18 | 999.9 |
| 20260503221535 | 67 | 137 | 1.0 | 8.0 | 0.00 | 0.00 | 0.00 | 17 | 999.8 |
| 20260503214531 | 67 | 144 | 2.0 | 11.0 | 0.00 | 0.00 | 0.00 | 19 | 999.7 |
| 20260503213030 | 68 | 147 | 2.0 | 9.0 | 0.00 | 0.00 | 0.00 | 20 | 999.6 |
| 20260503211525 | 67 | 46 | 3.0 | 10.0 | 0.00 | 0.00 | 0.00 | 22 | 999.8 |
| 20260503210123 | 66 | 136 | 1.0 | 4.0 | 0.00 | 0.00 | 0.00 | 25 | 1000.1 |
| 20260503204524 | 65 | 57 | 1.0 | 5.0 | 0.00 | 0.00 | 0.00 | 27 | 1000.2 |
| 20260503203021 | 64 | 128 | 1.0 | 4.0 | 0.00 | 0.00 | 0.00 | 27 | 1000.5 |
| 20260503201519 | 64 | 50 | 2.0 | 11.0 | 0.00 | 0.00 | 0.00 | 26 | 1000.6 |
| 20260503200121 | 65 | 67 | 4.0 | 9.0 | 0.00 | 0.00 | 0.00 | 23 | 1000.7 |
| 20260503194522 | 66 | 78 | 5.0 | 10.0 | 0.00 | 0.00 | 0.00 | 24 | 1000.8 |
| 20260503193015 | 66 | 137 | 1.0 | 10.0 | 0.00 | 0.00 | 0.00 | 25 | 1000.9 |
| 20260503191513 | 64 | 104 | 5.0 | 12.0 | 0.00 | 0.00 | 0.00 | 26 | 1001.2 |
| 20260503190113 | 65 | 46 | 2.0 | 14.0 | 0.00 | 0.00 | 0.00 | 26 | 1001.4 |
| 20260503184515 | 64 | 51 | 3.0 | 11.0 | 0.00 | 0.00 | 0.00 | 28 | 1001.5 |
| 20260503183013 | 64 | 51 | 8.0 | 16.0 | 0.00 | 0.00 | 0.00 | 27 | 1001.8 |
| 20260503181506 | 64 | 81 | 2.0 | 10.0 | 0.00 | 0.00 | 0.00 | 28 | 1002.1 |
| 20260503180109 | 64 | 71 | 1.0 | 6.0 | 0.00 | 0.00 | 0.00 | 28 | 1002.2 |
| 20260503174602 | 63 | 80 | 2.0 | 5.0 | 0.00 | 0.00 | 0.00 | 29 | 1002.3 |
| 20260503174502 | 63 | 76 | 1.0 | 5.0 | 0.00 | 0.00 | 0.00 | 29 | 1002.3 |
| 20260503173110 | 64 | 147 | 2.0 | 6.0 | 0.00 | 0.00 | 0.00 | 28 | 1002.5 |
| 20260503171555 | 63 | 37 | 1.0 | 9.0 | 0.00 | 0.00 | 0.00 | 30 | 1002.6 |